Погода в Акшуате

Россия / Ульяновская область     53°40′33″N   47°26′15″E
темп.,
°C
ветер,
м/с
пор.,
м/с
влажн.,
%
обл.,
%
осадки,
мм/ч
давл.,
гПа
погр.,
м
8 мая, сб
сб801:00+10юз1393100 0.9 1015104
04:00+10ююз1294100 1.4 1015114
07:00+10зсз129192 0.0 1016323
10:00+13юз127421 0.0 1016698
13:00+16ююз355897 0.1 10141578
16:00+19ююз3546100 0.2 10131885
19:00+17ююз3660100 0.0 1012192
22:00+12ююз3576100 0.0 101278
9 мая, вс
вс901:00+11ю367499 0.0 1012117
04:00+10ю3970100 0.0 1012161
07:00+11ююв3870100 0.2 1012198
10:00+13ююв51264100 0.2 1012412
13:00+17ю51058100 0.0 1012902
16:00+19ю5959100 0.3 10111280
19:00+15зюз3680100 2.9 1011125
22:00+10сз5995100 4.4 1015289
10 мая, пн
пн1001:00+9ссз489497 0.0 1017311
04:00+8ссз4996100 0.0 1019373
07:00+8с61092100 0.1 1021439
10:00+9с7985100 0.1 1022556
13:00+12ссв7973100 0.0 1023806
16:00+13ссв7870100 0.0 1024874
19:00+11ссв61079100 0.0 1025603
22:00+8ссв6138685 0.0 1027462
11 мая, вт
вт1101:00+8св61386100 0.0 1027403
04:00+7св61484100 0.0 1028385
07:00+7св61476100 0.0 1029438
10:00+11св71062100 0.0 1030495
13:00+15св7951100 0.0 1029724
16:00+16всв6848100 0.0 1028832
19:00+14св5106099 0.0 1029434
22:00+10св41170100 0.0 1029247
12 мая, ср
ср1201:00+9св4127285 0.0 1029246
04:00+7всв310744 0.0 1029189
07:00+9всв411710 0.0 1030323
10:00+15в68485 0.0 1029688
13:00+18в56412 0.0 10291141
16:00+19в56404 0.0 10271173
19:00+17в37570 0.0 1027244
22:00+13всв366850 0.0 102799